Regional Weather Roundup
Issued by NWS Charleston, SC

Current Version | Previous Version | Graphics & Text | Print | Product List | Glossary On
Versions: 1 2 3 4 5 6 7 8 9 10 11 12 13 14 15 16 17 18 19 20 21 22 23 24 25 26 27 28 29 30 31 32 33 34 35 36 37 38 39 40 41 42 43 44 45 46 47 48 49 50
000
ASUS42 KCHS 201427
RWRCHS

REGIONAL WEATHER ROUNDUP
NATIONAL WEATHER SERVICE CHARLESTON SC
900 AM EST FRI JAN 20 2017

NOTE: "FAIR" INDICATES FEW OR NO CLOUDS BELOW 12,000 FEET WITH NO
SIGNIFICANT WEATHER AND/OR OBSTRUCTIONS TO VISIBILITY.

NOT ALL STATIONS ARE QUALITY CONTROLLED. USE DATA WITH CAUTION...
ESPECIALLY DEWPOINT OBSERVATIONS.

SCZ027-030-031-034>040-042>050-201500-
...SOUTHEAST SOUTH CAROLINA...

CITY           SKY/WX    TMP DP  RH WIND       PRES   REMARKS
N CHARLESTON   CLOUDY    63  59  87 S6        29.91R
WATERFRONT PRK   N/A     58  57  96 VRB2      29.90S
MOUNT PLEASANT FAIR      64  63  94 S5        29.92R
JOHNS ISLAND   FAIR      66  63  88 S8        29.92R
PINOPOLIS        N/A     61  57  88 CALM      29.81S
MONCKS CORNER  CLOUDY    59  57  94 S3        29.91R
SUMMERVILLE    CLOUDY    63  63 100 S3        29.91S
BEAUFORT MCAS  MOSUNNY   66  61  84 S5        29.91R
BEAUFORT ARPT  NOT AVBL
HILTON HEAD IS SUNNY     66  66 100 S7        29.92
WALTERBORO     MOSUNNY   63  59  88 S7        29.91S
ALLENDALE      PTSUNNY   64  61  88 S7        29.89S

...SOUTHERN MIDLANDS AND PEE DEE...

CITY           SKY/WX    TMP DP  RH WIND       PRES   REMARKS
GEORGETOWN     CLOUDY    61  59  94 CALM      29.92S
KINGSTREE      CLOUDY    59  54  82 SE5       29.90S
ORANGEBURG     PTSUNNY   60  57  89 S5        29.90R
BARNWELL       PTSUNNY   64  61  88 SW9G20    29.90R
AIKEN          CLOUDY    61  57  88 S6        29.92R
MANNING        FAIR      59  50  72 S3        29.90S
COLUMBIA       MOSUNNY   59  56  89 E3        29.88S
SUMTER         CLOUDY    58  55  89 CALM      29.87R
FLORENCE       CLOUDY    58  54  86 S7        29.90S
MYRTLE BEACH   NOT AVBL
N MYRTLE BEACH CLOUDY    61  54  77 E7        29.91S

$$

GAZ063-065-086>088-099>101-113>116-118-119-134>141-150-201500-
...SOUTHEAST GEORGIA...

CITY           SKY/WX    TMP DP  RH WIND       PRES   REMARKS
SAVANNAH ARPT  MOSUNNY   64  59  83 SW5       29.91R
HUNTER AAF     SUNNY     66  66  99 S7        29.88R
FORT STEWART   CLOUDY    64  61  88 SW10      29.91R
STATESBORO     CLOUDY    63  32  31 SW5       29.91R FOG
SYLVANIA       CLOUDY   N/A N/A N/A SW3       29.92R
CLAXTON        CLOUDY   N/A N/A N/A CALM      29.92R FOG

...CSRA...CENTRAL AND FAR SOUTHEAST GEORGIA...

CITY           SKY/WX    TMP DP  RH WIND       PRES   REMARKS
THOMSON        CLOUDY    64  64 100 CALM      29.92R
AUGUSTA-BUSH   CLOUDY    64  59  83 S7        29.88S
AUGUSTA-DANIEL CLOUDY    62  57  83 S6        29.89R
SWAINSBORO     CLOUDY    63  63 100 S6        29.90S
VIDALIA        CLOUDY    64  64 100 SW6       29.91R FOG
EASTMAN        CLOUDY    67  66  99 SW6       29.92R
HAZLEHURST     CLOUDY    67  67 100 SW8       29.89S
ALMA           CLOUDY    67  65  93 SW10      29.91R
WAYCROSS       CLOUDY    67  67 100 SW7       29.92S FOG
JESUP          CLOUDY    64  63  94 SW3       29.93R
BAXLEY         CLOUDY    68  68 100 SW7       29.91S
BRUNSWICK      SUNNY     70  64  83 SW8       29.93R
SAINT SIMONS   SUNNY     66  62  87 S6        29.91R

$$

SCZ027-028-034-036>038-045-046-048>050-GAZ119-141-201500-
...LAKE AND SUPPLEMENTAL COASTAL OBSERVATIONS...

STATION/POSITION TIME  TEMP    WIND        PRES    WAVE   SWELL
                       AIR SEA DIR/SP/G            HT/PER HT/PER/DIR
                 (UTC) (F)     (DEG/KT/KT) (MB)    (FT/S) (FT/S/D)
WINYAH BAY       1330   56        CALM     1013.0S
LAKE MURRAY      1330   58     140/  4/  4 1011.2F
ACE BASIN NERRS  1345   60        CALM     1013.0R
FORT PULASKI     1400   64 58  210/  5/  7 1012.9
SAPELO ISLAND    1400   65     190/  6     1013.0

$$

ANZ835-935-AMZ111-154-330-350-352-354-370-450-454-472-201500-
...C-MAN AND BUOY OBSERVATIONS...

STATION/POSITION TIME  TEMP    WIND        PRES    WAVE   SWELL
                       AIR SEA DIR/SP/G            HT/PER HT/PER/DIR
                 (UTC) (F)     (DEG/KT/KT) (MB)    (FT/S) (FT/S/D)
BUOY 41004       1350   71 71  220/  8/  8 1012.8F   2/ 9   2/120/ 9
BUOY 41008       1350   62 59  170/  8/  8 1012.6R   2/ 9   2/ 60/ 9
FOLLY BEACH CMAN 1400   59     180/  4/  4 1013.4R
CAPERS NEARSHORE 1308   57 55  140/  4/  6 1012.6F
FRIPP NEARSHORE  1408   61 58  210/  4/  6 1012.9R


STATION/POSITION TIME  TEMP    WIND        PRES    WAVE   SWELL
                       AIR SEA DIR/SP/G            HT/PER HT/PER/DIR
                 (UTC) (F)     (DEG/KT/KT) (MB)    (FT/S) (FT/S/D)
5E ST. MARYS GA  1400      63                N/A     2/ 9
FRYING PAN BUOY  1410   72 71  230/ 10/ 14 1013.3
BUOY 41025       1350   62 76  110/  8/ 10 1014.9R   5/12   5/ 90/12
CAPE LOOKOUT NC  1400   64      90/  7/  8 1014.2R
BUOY 41002       1350   69 71  150/ 10/ 12 1015.5R   6/10   5/10
BUOY 41010       NOT AVBL
ST AUGUSTINE FL  1400   66 62  210/  7/  9 1014.6R


$$



USA.gov is the U.S. government's official web portal to all federal, state and local government web resources and services.